Weather History for Massena, NY

Change the Weather History Date:

Tuesday, November 6, 2012

  Actual Average Record
Temperature  
Mean Temperature 28 °F 39 °F  
Max Temperature 38 °F 48 °F 78 °F (1948)
Min Temperature 18 °F 30 °F 2 °F (1951)
Degree Days  
Heating Degree Days 37 26  
Month to date heating degree days 174 151  
Since 1 July heating degree days 819 1032  
Moisture  
Dew Point 19 °F    
Average Humidity 68    
Maximum Humidity 92    
Minimum Humidity 44    
Precipitation  
Precipitation 0.00 in 0.10 in 1.27 in (1948)
Month to date precipitation 0.17 0.67  
Year to date precipitation 26.06 30.17  
Sea Level Pressure  
Sea Level Pressure 30.24 in    
Wind  
Wind Speed 3 mph (SSW)    
Max Wind Speed 10 mph    
Max Gust Speed 16 mph    
Visibility 10 miles    
Events      
T = Trace of Precipitation, MM = Missing Value Source: NWS Daily Summary

Daily Weather History Graph

Daily Weather History Graph

Search for Another Location

Airport:

Trip Planner

Search our weather history database for the weather conditions in past years. The results will help you decide how hot, cold, wet, or windy it might be!

Date:

Astronomy

Nov. 06, 2012 Rise Set
Actual Time 6:45 AM EST 4:40 PM EST
Civil Twilight 6:14 AM EST 5:11 PM EST
Nautical Twilight 5:39 AM EST 5:46 PM EST
Astronomical Twilight 5:04 AM EST 6:20 PM EST
Moon 11:20 PM EST (11/6) 12:34 PM EST (11/6)
Length of Visible Light 10h 57m
Length of Day
9h 55m
Waning Gibbous, 53% of the Moon is Illuminated
Nov 6
Waning Gibbous
Nov 6
Last Quarter
Nov 13
New
Nov 20
First Quarter
Nov 28
Full

Hourly Weather History & Observations

Time (EST) Temp. Windchill Dew Point Humidity Pressure Visibility Wind Dir Wind Speed Gust Speed Precip Events Conditions
12:53 AM 23.0 °F - 19.0 °F 85% 30.21 in 10.0 mi Calm Calm - N/A   Clear
1:53 AM 23.0 °F - 19.0 °F 85% 30.22 in 10.0 mi Calm Calm - N/A   Clear
2:53 AM 21.9 °F - 19.0 °F 89% 30.22 in 10.0 mi Calm Calm - N/A   Scattered Clouds
3:53 AM 21.9 °F - 19.0 °F 89% 30.22 in 10.0 mi Calm Calm - N/A   Overcast
4:53 AM 19.9 °F 14.9 °F 18.0 °F 92% 30.23 in 10.0 mi SSW 3.5 mph - N/A   Clear
5:53 AM 19.9 °F - 18.0 °F 92% 30.24 in 10.0 mi Calm Calm - N/A   Clear
6:53 AM 21.0 °F - 18.0 °F 88% 30.25 in 10.0 mi Calm Calm - N/A   Clear
7:53 AM 24.1 °F 17.0 °F 21.0 °F 88% 30.26 in 10.0 mi SW 5.8 mph - N/A   Clear
8:53 AM 28.0 °F 21.7 °F 24.1 °F 85% 30.26 in 10.0 mi SSW 5.8 mph - N/A   Clear
9:53 AM 32.0 °F 28.7 °F 23.0 °F 69% 30.27 in 10.0 mi SSW 3.5 mph - N/A   Clear
10:53 AM 34.0 °F 29.8 °F 21.0 °F 59% 30.27 in 10.0 mi Variable 4.6 mph - N/A   Clear
11:53 AM 36.0 °F 33.3 °F 19.0 °F 50% 30.25 in 10.0 mi South 3.5 mph - N/A   Mostly Cloudy
12:53 PM 37.0 °F 31.0 °F 18.0 °F 46% 30.24 in 10.0 mi SSW 8.1 mph - N/A   Mostly Cloudy
1:53 PM 37.0 °F 32.4 °F 18.0 °F 46% 30.23 in 10.0 mi West 5.8 mph - N/A   Partly Cloudy
2:53 PM 37.9 °F 34.4 °F 19.0 °F 47% 30.23 in 10.0 mi Variable 4.6 mph - N/A   Clear
3:53 PM 37.0 °F - 17.1 °F 44% 30.22 in 10.0 mi Calm Calm - N/A   Clear
4:53 PM 32.0 °F 28.7 °F 18.0 °F 56% 30.22 in 10.0 mi NNE 3.5 mph - N/A   Clear
5:53 PM 27.0 °F - 18.0 °F 69% 30.23 in 10.0 mi Calm Calm - N/A   Clear
6:53 PM 24.1 °F 19.7 °F 18.0 °F 77% 30.23 in 10.0 mi NNE 3.5 mph - N/A   Clear
7:53 PM 25.0 °F - 18.0 °F 75% 30.24 in 10.0 mi Calm Calm - N/A   Clear
8:53 PM 24.1 °F - 18.0 °F 77% 30.25 in 10.0 mi Calm Calm - N/A   Clear
9:53 PM 21.0 °F 16.2 °F 16.0 °F 81% 30.25 in 10.0 mi NNE 3.5 mph - N/A   Clear
10:53 PM 24.1 °F 18.2 °F 17.1 °F 75% 30.23 in 10.0 mi ENE 4.6 mph - N/A   Clear
11:53 PM 23.0 °F 15.8 °F 16.0 °F 74% 30.23 in 10.0 mi ENE 5.8 mph - N/A   Clear